Regional Weather Roundup
Issued by NWS

Home | Current Version | Previous Version | Graphics & Text | Print | Product List | Glossary On
Versions: 1 2 3 4 5 6 7 8 9 10 11 12 13 14 15 16 17 18 19 20 21 22 23 24 25 26 27 28 29 30 31 32 33 34 35 36 37 38 39 40 41 42 43 44 45 46 47 48 49 50
000
ASUS43 KLOT 130108
RWRIL

ILLINOIS REGIONAL WEATHER ROUNDUP
NATIONAL WEATHER SERVICE CHICAGO/ROMEOVILLE IL
700 PM CST TUE DEC 12 2017

NOTE: "FAIR" INDICATES FEW OR NO CLOUDS BELOW 12,000 FEET WITH NO
SIGNIFICANT WEATHER AND/OR OBSTRUCTIONS TO VISIBILITY.

* THESE STATIONS ARE NOT UNDER NWS QUALITY CONTROL. THEY ALSO MAY NOT
  REPORT WEATHER SUCH AS PRECIPITATION OR FOG.

ILZ001-002-007-009-015-016-024-130200-
NORTHWEST ILLINOIS

CITY           SKY/WX    TMP DP  RH WIND       PRES   REMARKS
MOLINE         CLOUDY    27   6  41 S3        30.04F
STERLING*      CLOUDY    22  14  71 CALM      30.04F
SAVANNA*       CLOUDY    23  13  65 CALM      30.03F
$$

ILZ003-004-008-010-011-017-018-130200-
NORTH CENTRAL ILLINOIS

CITY           SKY/WX    TMP DP  RH WIND       PRES   REMARKS
ROCKFORD       CLOUDY    20   9  62 W6        30.03F WCI  12
FREEPORT*      CLOUDY    20   8  62 W5        30.02F WCI  13
ROCHELLE*      CLOUDY    20  11  68 W8        30.03F WCI  10
DE KALB*       CLOUDY    19   9  67 W9        30.01F WCI   7
PERU*          CLOUDY    22  12  66 W6        30.05S WCI  15
$$

ILZ005-006-012>014-019>023-130200-
NORTHEAST ILLINOIS

CITY           SKY/WX    TMP DP  RH WIND       PRES   REMARKS
CHICAGO-OHARE  PTCLDY    18   8  65 W8        30.01S WCI   8
CHICAGO-MIDWAY PTCLDY    20   9  62 W10       30.02F WCI   9
AURORA         CLOUDY    18  10  71 W8        30.02F WCI   8
LANSING*       PTCLDY    17  10  73 W7        30.03S WCI   7
JOLIET*        MOCLDY    20   9  62 W7        30.04F WCI  11
WAUKEGAN       MOCLDY    15   2  56 W3        29.99S
DUPAGE AIRPORT PTCLDY    15   9  76 W7        30.01S WCI   5
KANKAKEE*      CLOUDY    19   8  60 NW5       30.06S WCI  12
WHEELING       PTCLDY    19   8  62 W6        30.03S WCI  11
MORRIS*        CLOUDY    19   8  62 W6        30.03F WCI  11
ROMEOVILLE*    PTCLDY    18  10  71 W8        30.02F WCI   7
NORTHERLY ISL    N/A     20   9  62 W12         N/A  WCI   8
$$

LMZ740>746-130200-
SOUTHERN LAKE MICHIGAN

STATION/POSITION SKY/WX   TEMP    WIND        PRES    VSBY  WAVE
                          AIR SEA DIR/SP/G                  HT/PER
                          (F)     (DEG/KT/KT) (MB)    (MI)  (FT/S)
HARRISON CRIB              21     280/ 11/ 13   N/A
BURNHAM HARBOR             21     280/  7/ 12   N/A
CALUMET HARBOR             19     240/  5/ 10 1016.0F
BURNS HARBOR               23     290/ 15/ 21 1016.6R
MICHIGAN CITY              23     270/ 20/ 23   N/A
$$

ILZ025>027-034>036-040-047-049-050-058-095>099-130200-
WEST-CENTRAL ILLINOIS

CITY           SKY/WX    TMP DP  RH WIND       PRES   REMARKS
QUINCY         CLEAR     27   3  35 SW6       30.07F WCI  20
GALESBURG*     CLOUDY    26   8  46 SW3       30.07S
MACOMB*        CLEAR     24   4  43 CALM      30.09S
JACKSONVILLE*  CLOUDY    26   4  37 SW3       30.09F
PITTSFIELD*    CLOUDY    29   3  32 W6        30.10F WCI  23
$$

ILZ028>032-037-038-041>044-048-051>054-059>061-130200-
CENTRAL ILLINOIS

CITY           SKY/WX    TMP DP  RH WIND       PRES   REMARKS
PONTIAC        CLOUDY    20   8  58 CALM      30.07R
BLOOMINGTON    CLOUDY    25   6  44 W12       30.06S WCI  14
DECATUR        CLOUDY    26   3  37 W10       30.08F WCI  16
PEORIA         CLOUDY    25   4  40 W6        30.08S WCI  18
LACON*         CLOUDY    25   4  41 W3        30.06S
LINCOLN*       MOCLDY    26   6  42 CALM      30.09S
SPRINGFIELD    CLOUDY    28   5  37 W3        30.10S
TAYLORVILLE    CLOUDY    27   5  40 W5        30.10S WCI  21
$$

ILZ033-039-045-046-055>057-062-063-130200-
EAST-CENTRAL ILLINOIS

CITY           SKY/WX    TMP DP  RH WIND       PRES   REMARKS
CHAMPAIGN      CLOUDY    25   7  46 W9        30.06S WCI  15
DANVILLE*      CLEAR     19   5  53 W7        30.03S WCI  10
RANTOUL*       CLOUDY    24   7  48 NW5       30.06S WCI  18
MATTOON        CLEAR     24   9  52 W8        30.07F WCI  15
PARIS*         CLEAR     21   8  57 W8        30.07S WCI  11
$$

ILZ079-100>102-130200-
SOUTHWEST ILLINOIS

CITY           SKY/WX    TMP DP  RH WIND       PRES   REMARKS
ALTON          CLOUDY    30   7  37 W10       30.12F WCI  21
BELLEVILLE     CLOUDY    29   6  36 W5        30.11F WCI  24
CAHOKIA*       CLOUDY    31   0  26 W6        30.13F WCI  25
SPARTA*        PTCLDY    30   9  40 CALM      30.14S
$$

ILZ064>066-069>071-074>076-080>082-084>086-088>090-092>094-130200-
SOUTH-CENTRAL ILLINOIS

CITY           SKY/WX    TMP DP  RH WIND       PRES   REMARKS
CARBONDALE     CLEAR     24  10  55 CALM      30.14F
CAIRO*         CLEAR     27  11  49 CALM      30.16S
EFFINGHAM*     PTCLDY    26  11  53 W7        30.12S WCI  18
MARION         PTCLDY    27  10  50 W5        30.15S WCI  21
MT. VERNON     PTCLDY    25  11  55 CALM      30.12F
CENTRALIA*     MOCLDY    28  14  54 CALM      30.10F
SALEM*         CLEAR     26  10  51 CALM      30.11F
METROPOLIS*    CLEAR     31   8  38 W3        30.15F
$$

ILZ067-068-072-073-078-083-087-091-130200-
SOUTHEAST ILLINOIS

CITY           SKY/WX    TMP DP  RH WIND       PRES   REMARKS
LAWRENCEVILLE  CLEAR     25   9  50 W5        30.11R WCI  19
FLORA*         MOCLDY    28  10  45 W3        30.12S
FAIRFIELD*     CLEAR     27   8  43 CALM      30.12S
HARRISBURG*    CLEAR     25  13  60 W3        30.14F
ROBINSON*      CLEAR     22  11  61 W7        30.11S WCI  14
CARMI*         CLEAR     24  13  61 W6        30.12F WCI  17
$$

ABBREVIATIONS USED IN REMARKS
   TC - TEMPERATURE IN CELSIUS
  WCI - WIND CHILL INDEX
   HX - HEAT INDEX
  VSB - VISIBILITY
$$





USA.gov is the U.S. government's official web portal to all federal, state and local government web resources and services.